(304999) = 2007 TY262

Discovered at Kitt Peak on 2007-10-10 by Spacewatch.

Orbit

Orbit type: Main Belt

Note: WebGL enabled browser required.

epoch2023-09-13.0
epoch JD2460200.5
perihelion date2022-01-18.33525
perihelion JD2459597.83525
argument of perihelion (°)70.85887
ascending node (°)214.51218
inclination (°)5.33768
eccentricity0.1101492
perihelion distance (AU)2.1838206
Tisserand w.r.t. Jupiter3.5
ΔV w.r.t. Earth (km/sec)9.4
semimajor axis (AU)2.4541423
mean anomaly (°)154.50054
mean daily motion (°/day)0.25636230
aphelion distance (AU)2.724
period (years)3.84
P-vector [x]0.26274806
P-vector [y]-0.91652377
P-vector [z]-0.30157527
Q-vector [x]0.96342384
Q-vector [y]0.23213779
Q-vector [z]0.13389009
absolute magnitude16.95
phase slope0.15
uncertainty0
referenceMPEC 2023-X102
observations used313
oppositions15
arc length (days)9328
first opposition used1998
last opposition used2023
residual rms (arc-secs)0.61
perturbers coarse indicatorM-v
perturbers precise indicator003Ek
first observation date used1998-05-22.0
last observation date used2023-12-05.0
computer nameMPCLINUX
JD of orbit computation2456937.390047
perihelion JD uncertainty (days)6.3219E-05
argument of perihelion uncertainty (°)4.0223E-05
ascending node uncertainty (°)3.6175E-05
inclination uncertainty (°)3.4307E-06
eccentricity uncertainty 3.8030E-08
perihelion distance uncertainty (AU)9.3226E-08
Minimum Orbit Intersection Distances (in AU)
for orbit epoch: 2460200.5, reference: E2023-XA2
Mercury1.7333
Venus1.46332
Earth1.174
Mars0.727
Jupiter2.39039
Saturn6.34416
Uranus15.8508
Neptune27.2636

Observations

317 total observations over interval: 1998 05 22.16959 – 2023 12 05.623209
These data are available for download (format description).

Date (UT) J2000 RA J2000 Dec Magn Location Ref
1998 05 22.16959 13 42 50.09 -09 34 31.3 20.3 V 691 – Steward Observatory, Kitt Peak-Spacewatch MPS 233459
1998 05 22.19178 13 42 49.40 -09 34 24.8 20.4 V 691 – Steward Observatory, Kitt Peak-Spacewatch MPS 233459
1998 05 22.21306 13 42 48.77 -09 34 17.7 20.6 V 691 – Steward Observatory, Kitt Peak-Spacewatch MPS 233459
2002 05 19.29185 15 32 31.53 -15 30 01.7 20.4   644 – Palomar Mountain/NEAT MPS 233459
2002 05 19.35179 15 32 28.07 -15 29 39.6 20.0   644 – Palomar Mountain/NEAT MPS 233459
2002 05 19.41436 15 32 24.48 -15 29 16.7 19.7   644 – Palomar Mountain/NEAT MPS 233459
2003 09 28.41060 02 19 29.95 +15 25 11.1 20.8 V 691 – Steward Observatory, Kitt Peak-Spacewatch MPS 233459
2003 09 28.43927 02 19 28.90 +15 25 02.4 20.8 V 691 – Steward Observatory, Kitt Peak-Spacewatch MPS 233459
2003 09 28.46683 02 19 27.89 +15 24 54.4 20.8 V 691 – Steward Observatory, Kitt Peak-Spacewatch MPS 233459
2003 10 21.36937 02 01 24.68 +13 00 51.8 19.6   644 – Palomar Mountain/NEAT MPS 233459
2003 10 21.39606 02 01 23.17 +13 00 40.0 19.5   644 – Palomar Mountain/NEAT MPS 233459
2003 10 21.41726 02 01 21.95 +13 00 30.5 19.8   644 – Palomar Mountain/NEAT MPS 233459
2003 10 25.21119 01 57 53.32 +12 32 36.8 20.5 V 691 – Steward Observatory, Kitt Peak-Spacewatch MPS 233459
2003 10 25.25112 01 57 51.04 +12 32 19.2 21.2 V 691 – Steward Observatory, Kitt Peak-Spacewatch MPS 233459
2003 10 25.27907 01 57 49.45 +12 32 06.9 20.6 V 691 – Steward Observatory, Kitt Peak-Spacewatch MPS 233459
2003 10 25.28648 01 57 49.03 +12 32 03.7 20.1 V 291 – LPL/Spacewatch II MPS 233459
2003 10 25.31015 01 57 47.71 +12 31 54.0 19.7 V 291 – LPL/Spacewatch II MPS 233459
2003 10 25.33400 01 57 46.35 +12 31 42.2 19.9 V 291 – LPL/Spacewatch II MPS 233459
2007 09 10.41360 03 35 01.28 +19 20 02.5 21.2 V G96 – Mt. Lemmon Survey MPS 233459
2007 09 10.41961 03 35 01.39 +19 20 02.5 21.1 V G96 – Mt. Lemmon Survey MPS 233459
2007 09 10.42557 03 35 01.53 +19 20 01.9 20.7 V G96 – Mt. Lemmon Survey MPS 233459
2007 09 10.43155 03 35 01.68 +19 20 02.0 20.8 V G96 – Mt. Lemmon Survey MPS 233459
2007 10 10.38183 03 33 59.05 +18 15 18.3 20.9 V 691 – Steward Observatory, Kitt Peak-Spacewatch MPS 223739
2007 10 10.39946 03 33 58.51 +18 15 13.9 21.3 V 691 – Steward Observatory, Kitt Peak-Spacewatch MPS 223739
2007 10 10.41711 03 33 57.96 +18 15 09.7 21.1 V 691 – Steward Observatory, Kitt Peak-Spacewatch MPS 223739
2007 10 14.36947 03 31 52.95 +17 58 44.0 21.1 V 691 – Steward Observatory, Kitt Peak-Spacewatch MPS 223739
2007 10 14.38713 03 31 52.30 +17 58 39.7 21.1 V 691 – Steward Observatory, Kitt Peak-Spacewatch MPS 223739
2007 10 14.40242 03 31 51.72 +17 58 35.8 21.8 V 691 – Steward Observatory, Kitt Peak-Spacewatch MPS 223739
2007 10 20.40599 03 27 55.19 +17 30 26.5 20.5 V 691 – Steward Observatory, Kitt Peak-Spacewatch MPS 233459
2007 10 20.42128 03 27 54.50 +17 30 21.8 20.4 V 691 – Steward Observatory, Kitt Peak-Spacewatch MPS 233459
2007 10 20.43642 03 27 53.79 +17 30 17.2 20.4 V 691 – Steward Observatory, Kitt Peak-Spacewatch MPS 233459
2007 11 05.31966 03 14 08.62 +16 01 35.7 20.2 V G96 – Mt. Lemmon Survey MPS 233459
2007 11 05.32423 03 14 08.37 +16 01 34.0 19.9 V G96 – Mt. Lemmon Survey MPS 233459
2007 11 05.32862 03 14 08.12 +16 01 32.5 20.0 V G96 – Mt. Lemmon Survey MPS 233459
2007 11 05.33311 03 14 07.83 +16 01 30.9 20.1 V G96 – Mt. Lemmon Survey MPS 233459
2007 11 20.31810 02 59 44.53 +14 32 27.0   291 – LPL/Spacewatch II MPS 233459
2007 11 20.32563 02 59 44.12 +14 32 24.4   291 – LPL/Spacewatch II MPS 233459
2007 11 20.33285 02 59 43.70 +14 32 21.9   291 – LPL/Spacewatch II MPS 233459
2009 02 01.32707 10 03 27.14 +03 36 10.7 20.9 V G96 – Mt. Lemmon Survey MPS 272718
2009 02 01.33672 10 03 26.71 +03 36 13.2 20.8 V G96 – Mt. Lemmon Survey MPS 272718
2009 02 01.34653 10 03 26.17 +03 36 15.0 20.8 V G96 – Mt. Lemmon Survey MPS 272718
2009 02 01.35588 10 03 25.70 +03 36 17.3 20.8 V G96 – Mt. Lemmon Survey MPS 272718
2011 10 21.42196 04 44 18.09 +19 23 03.1 20.5 V G96 – Mt. Lemmon Survey MPS 395072
2011 10 21.43176 04 44 17.84 +19 23 01.4 20.7 V G96 – Mt. Lemmon Survey MPS 395072
2011 10 21.44166 04 44 17.62 +19 22 59.5 20.6 V G96 – Mt. Lemmon Survey MPS 395072
2011 10 21.45161 04 44 17.37 +19 22 57.3 20.7 V G96 – Mt. Lemmon Survey MPS 395072
2011 10 26.42403 04 42 08.426 +19 06 11.74 21.5 w F51 – Pan-STARRS 1, Haleakala MPS 396372
2011 10 26.43854 04 42 07.960 +19 06 08.79 21.3 w F51 – Pan-STARRS 1, Haleakala MPS 396372
2011 10 26.45311 04 42 07.491 +19 06 05.72 21.6 w F51 – Pan-STARRS 1, Haleakala MPS 396372
2011 10 26.46767 04 42 07.024 +19 06 02.65 21.4 w F51 – Pan-STARRS 1, Haleakala MPS 396372
2011 10 30.43311 04 39 53.12 +18 51 38.1 20.8 V 691 – Steward Observatory, Kitt Peak-Spacewatch MPS 398267
2011 10 30.45085 04 39 52.42 +18 51 33.7 21.0 V 691 – Steward Observatory, Kitt Peak-Spacewatch MPS 398267
2011 10 30.46859 04 39 51.75 +18 51 29.6 20.8 V 691 – Steward Observatory, Kitt Peak-Spacewatch MPS 398267
2011 11 24.52187 04 18 05.633 +17 06 34.53 20.7 g F51 – Pan-STARRS 1, Haleakala MPS 402291
2011 11 24.54776 04 18 04.023 +17 06 27.34 20.3 r F51 – Pan-STARRS 1, Haleakala MPS 402291
2011 11 24.55949 04 18 03.280 +17 06 24.34 20.4 r F51 – Pan-STARRS 1, Haleakala MPS 402291
2011 11 27.22618 04 15 19.98 +16 54 53.6 19.8 V G96 – Mt. Lemmon Survey MPS 403812
2011 11 27.23487 04 15 19.44 +16 54 51.3 20.1 V G96 – Mt. Lemmon Survey MPS 403812
2011 11 27.25228 04 15 18.32 +16 54 46.4 20.1 V G96 – Mt. Lemmon Survey MPS 403812
2011 12 01.47798 04 11 00.302 +16 37 01.39 21.2 g F51 – Pan-STARRS 1, Haleakala MPS 403812
2011 12 01.50510 04 10 58.592 +16 36 54.74 20.9 r F51 – Pan-STARRS 1, Haleakala MPS 403812
2011 12 01.51797 04 10 57.786 +16 36 51.40 20.9 r F51 – Pan-STARRS 1, Haleakala MPS 403812
2011 12 28.18227 03 49 33.13 +15 14 55.3 20.7 V G96 – Mt. Lemmon Survey MPS 405881
2011 12 28.18918 03 49 32.88 +15 14 54.8 20.7 V G96 – Mt. Lemmon Survey MPS 405881
2011 12 28.19613 03 49 32.66 +15 14 54.4 20.3 V G96 – Mt. Lemmon Survey MPS 405881
2011 12 28.20309 03 49 32.41 +15 14 53.4 20.4 V G96 – Mt. Lemmon Survey MPS 405881
2013 02 13.51811 11 06 27.425 -01 40 47.32 20.8 g F51 – Pan-STARRS 1, Haleakala MPS 456202
2013 02 13.52965 11 06 26.914 -01 40 44.28 21.1 g F51 – Pan-STARRS 1, Haleakala MPS 456202
2013 02 15.47721 11 05 01.445 -01 32 13.34 20.8 w F51 – Pan-STARRS 1, Haleakala MPS 457245
2013 02 15.49090 11 05 00.805 -01 32 09.66 20.5 w F51 – Pan-STARRS 1, Haleakala MPS 457245
2013 02 15.51824 11 04 59.516 -01 32 02.27 20.5 w F51 – Pan-STARRS 1, Haleakala MPS 457245
2013 03 05.26774 10 49 54.12 +00 12 14.8 20.0 V G96 – Mt. Lemmon Survey MPS 459161
2013 03 05.27409 10 49 53.76 +00 12 17.7 20.0 V G96 – Mt. Lemmon Survey MPS 459161
2013 03 05.28049 10 49 53.40 +00 12 20.3 20.2 V G96 – Mt. Lemmon Survey MPS 459161
2013 03 05.28690 10 49 53.07 +00 12 22.9 20.0 V G96 – Mt. Lemmon Survey MPS 459161
2013 03 16.25969 10 40 20.28 +01 30 34.7 20.0 V G96 – Mt. Lemmon Survey MPS 461590
2013 03 16.26608 10 40 19.95 +01 30 37.4 20.1 V G96 – Mt. Lemmon Survey MPS 461590
2013 03 16.27245 10 40 19.63 +01 30 39.9 20.2 V G96 – Mt. Lemmon Survey MPS 461590
2013 03 16.27877 10 40 19.30 +01 30 42.8 20.3 V G96 – Mt. Lemmon Survey MPS 461590
2014 05 27.14808 21 09 49.54 -09 07 56.3 21.3 R J04 – ESA Optical Ground Station, Tenerife MPS 519346
2014 05 27.15966 21 09 49.96 -09 07 52.7 20.5 R J04 – ESA Optical Ground Station, Tenerife MPS 519346
2014 06 30.36300 21 18 16.01 -06 29 38.2 20.2 V 691 – Steward Observatory, Kitt Peak-Spacewatch MPS 522116
2014 06 30.38072 21 18 15.67 -06 29 36.0 20.1 V 691 – Steward Observatory, Kitt Peak-Spacewatch MPS 522116
2014 06 30.39846 21 18 15.39 -06 29 34.0 20.3 V 691 – Steward Observatory, Kitt Peak-Spacewatch MPS 522116
2014 07 01.55450 21 17 56.843 -06 27 22.61 20.2 w F51 – Pan-STARRS 1, Haleakala MPS 522735
2014 07 01.56661 21 17 56.603 -06 27 21.27 20.2 w F51 – Pan-STARRS 1, Haleakala MPS 522735
2014 07 01.57873 21 17 56.370 -06 27 20.01 20.3 w F51 – Pan-STARRS 1, Haleakala MPS 522735
2014 07 01.59083 21 17 56.127 -06 27 18.70 20.1 w F51 – Pan-STARRS 1, Haleakala MPS 522735
2014 08 17.20172 20 44 33.33 -08 18 15.3   691 – Steward Observatory, Kitt Peak-Spacewatch MPS 529502
